User: anonymous   Login
Location: Zilina
(0.0000°N, 18.7333°E)
Time: 19:47:56
(UTC+02:00)
Language:

ARIANE 5 R/B - Orbit

View from above orbital plane
View from above orbital plane
View from above satellite
View from above satellite

Ground track
Ground track

The orbit data is extracted from the following two-line orbital elements,

1 28913U 05049C   19113.60604207 -.00000029 +00000-0 +20728-2 0  9994
2 28913 003.7275 213.8031 7153219 198.5090 148.1698 02.24865827109615
Epoch (UTC): 23 April 2019 14:32:42
Eccentricity: 0.7153219
inclination: 3.7275°
perigee height: 628 km
apogee height: 35836 km
right ascension of ascending node: 213.8031°
argument of perigee: 198.5090°
revolutions per day: 2.24865827
mean anomaly at epoch: 148.1698°
orbit number at epoch: 10961

The dashed part of the orbit path shows where the satellite is in the earth's shadow,  

DLR